| time (UTC) | temp F | wind direction | speed MPH | gust MPH | rain 1hr in | rain 24hr in | rain mn in | humidity % | barometer mb |
| 20260831022117 | 72 | 180 | 2.0 | 3.0 | 0.00 | 0.00 | 0.00 | 50 | 998.6 |
| 20260831021617 | 73 | 180 | 2.0 | 4.0 | 0.00 | 0.00 | 0.00 | 51 | 998.8 |
| 20260831021119 | 73 | 180 | 4.0 | 6.0 | 0.00 | 0.00 | 0.00 | 51 | 998.8 |
| 20260831020619 | 73 | 0 | 4.0 | 5.0 | 0.00 | 0.00 | 0.00 | 51 | 999.0 |
| 20260831020119 | 73 | 0 | 4.0 | 8.0 | 0.00 | 0.00 | 0.00 | 51 | 998.8 |
| 20260831015620 | 73 | 0 | 3.0 | 5.0 | 0.00 | 0.00 | 0.00 | 51 | 998.9 |
| 20260831015121 | 73 | 0 | 3.0 | 6.0 | 0.00 | 0.00 | 0.00 | 51 | 998.9 |
| 20260831014617 | 73 | 180 | 2.0 | 5.0 | 0.00 | 0.00 | 0.00 | 52 | 998.9 |
| 20260831014119 | 73 | 180 | 2.0 | 4.0 | 0.00 | 0.00 | 0.00 | 52 | 999.0 |
| 20260831013640 | 73 | 0.0 | 0.0 | 0.00 | 0.00 | 0.00 | 53 | 999.1 | |
| 20260831013140 | 73 | 0.0 | 0.0 | 0.00 | 0.00 | 0.00 | 52 | 999.2 | |
| 20260831012617 | 74 | 0.0 | 0.0 | 0.00 | 0.00 | 0.00 | 52 | 999.3 | |
| 20260831012117 | 74 | 0.0 | 0.0 | 0.00 | 0.00 | 0.00 | 52 | 999.3 | |
| 20260831011620 | 74 | 0.0 | 0.0 | 0.00 | 0.00 | 0.00 | 52 | 999.3 | |
| 20260831011141 | 74 | 0.0 | 0.0 | 0.00 | 0.00 | 0.00 | 52 | 999.4 | |
| 20260831010619 | 74 | 0.0 | 0.0 | 0.00 | 0.00 | 0.00 | 52 | 999.3 | |
| 20260831010117 | 74 | 0.0 | 0.0 | 0.00 | 0.00 | 0.00 | 52 | 999.4 | |
| 20260831005616 | 74 | 0.0 | 0.0 | 0.00 | 0.00 | 0.00 | 52 | 999.5 | |
| 20260831005117 | 74 | 0.0 | 0.0 | 0.00 | 0.00 | 0.00 | 52 | 999.4 | |
| 20260831004619 | 74 | 0.0 | 0.0 | 0.00 | 0.00 | 0.00 | 52 | 999.4 | |
| 20260831004116 | 74 | 0.0 | 0.0 | 0.00 | 0.00 | 0.00 | 52 | 999.4 | |
| 20260831003637 | 74 | 0.0 | 0.0 | 0.00 | 0.00 | 0.00 | 53 | 999.5 | |
| 20260831003136 | 74 | 0.0 | 0.0 | 0.00 | 0.00 | 0.00 | 53 | 999.5 | |
| 20260831002617 | 74 | 0.0 | 0.0 | 0.00 | 0.00 | 0.00 | 53 | 999.5 | |
| 20260831002138 | 74 | 0.0 | 0.0 | 0.00 | 0.00 | 0.00 | 52 | 999.7 | |
| 20260831001639 | 74 | 0.0 | 0.0 | 0.00 | 0.00 | 0.00 | 53 | 999.6 | |
| 20260831001116 | 75 | 0.0 | 0.0 | 0.00 | 0.00 | 0.00 | 53 | 999.7 | |
| 20260831000620 | 75 | 0.0 | 0.0 | 0.00 | 0.00 | 0.00 | 52 | 999.7 | |
| 20260831000118 | 75 | 0.0 | 0.0 | 0.00 | 0.00 | 0.00 | 52 | 999.6 | |
| 20260830235619 | 75 | 0.0 | 0.0 | 0.00 | 0.00 | 0.00 | 52 | 999.6 | |
| 20260830235120 | 75 | 0 | 2.0 | 3.0 | 0.00 | 0.00 | 0.00 | 52 | 999.6 |
| 20260830234620 | 75 | 0.0 | 3.0 | 0.00 | 0.00 | 0.00 | 52 | 999.6 | |
| 20260830234119 | 75 | 0.0 | 0.0 | 0.00 | 0.00 | 0.00 | 52 | 999.6 | |
| 20260830233620 | 75 | 0.0 | 0.0 | 0.00 | 0.00 | 0.00 | 52 | 999.6 | |
| 20260830233116 | 76 | 0.0 | 0.0 | 0.00 | 0.00 | 0.00 | 51 | 999.6 | |
| 20260830232617 | 76 | 0.0 | 0.0 | 0.00 | 0.00 | 0.00 | 51 | 999.6 | |
| 20260830232121 | 76 | 0.0 | 0.0 | 0.00 | 0.00 | 0.00 | 51 | 999.6 | |
| 20260830231619 | 76 | 0.0 | 0.0 | 0.00 | 0.00 | 0.00 | 50 | 999.6 | |
| 20260830231119 | 76 | 0.0 | 0.0 | 0.00 | 0.00 | 0.00 | 50 | 999.6 | |
| 20260830230639 | 76 | 0.0 | 0.0 | 0.00 | 0.00 | 0.00 | 50 | 999.6 | |
| 20260830230119 | 76 | 0.0 | 0.0 | 0.00 | 0.00 | 0.00 | 50 | 999.4 | |
| 20260830225619 | 76 | 0.0 | 0.0 | 0.00 | 0.00 | 0.00 | 50 | 999.5 | |
| 20260830225118 | 76 | 0.0 | 0.0 | 0.00 | 0.00 | 0.00 | 49 | 999.4 | |
| 20260830224638 | 76 | 0.0 | 0.0 | 0.00 | 0.00 | 0.00 | 49 | 999.0 | |
| 20260830224120 | 76 | 0.0 | 0.0 | 0.00 | 0.00 | 0.00 | 49 | 998.8 | |
| 20260830223616 | 76 | 225 | 1.0 | 1.0 | 0.00 | 0.00 | 0.00 | 49 | 998.6 |
| 20260830223119 | 76 | 0.0 | 1.0 | 0.00 | 0.00 | 0.00 | 49 | 998.5 | |
| 20260830222639 | 76 | 225 | 2.0 | 3.0 | 0.00 | 0.00 | 0.00 | 49 | 998.3 |
| 20260830222118 | 76 | 0 | 3.0 | 5.0 | 0.00 | 0.00 | 0.00 | 49 | 998.3 |
| 20260830221616 | 76 | 0 | 3.0 | 5.0 | 0.00 | 0.00 | 0.00 | 49 | 998.1 |
| 20260830221136 | 76 | 0 | 2.0 | 3.0 | 0.00 | 0.00 | 0.00 | 50 | 998.2 |
| 20260830220616 | 76 | 0 | 3.0 | 3.0 | 0.00 | 0.00 | 0.00 | 50 | 998.0 |
| 20260830220119 | 76 | 0 | 2.0 | 3.0 | 0.00 | 0.00 | 0.00 | 50 | 998.0 |
| 20260830215621 | 76 | 0 | 2.0 | 3.0 | 0.00 | 0.00 | 0.00 | 50 | 997.9 |
| 20260830215119 | 76 | 0 | 1.0 | 2.0 | 0.00 | 0.00 | 0.00 | 50 | 997.8 |
| 20260830214620 | 76 | 0 | 3.0 | 5.0 | 0.00 | 0.00 | 0.00 | 50 | 997.6 |
| 20260830214121 | 76 | 180 | 3.0 | 4.0 | 0.00 | 0.00 | 0.00 | 49 | 997.4 |
| 20260830213620 | 76 | 180 | 4.0 | 6.0 | 0.00 | 0.00 | 0.00 | 49 | 997.4 |
| 20260830213158 | 76 | 180 | 3.0 | 5.0 | 0.00 | 0.00 | 0.00 | 49 | 997.4 |
| 20260830212641 | 76 | 180 | 3.0 | 6.0 | 0.00 | 0.00 | 0.00 | 49 | 997.5 |
| 20260830212120 | 76 | 203 | 2.0 | 3.0 | 0.00 | 0.00 | 0.00 | 49 | 997.5 |
| 20260830211619 | 76 | 203 | 1.0 | 2.0 | 0.00 | 0.00 | 0.00 | 49 | 997.6 |
| 20260830211140 | 76 | 0 | 1.0 | 2.0 | 0.00 | 0.00 | 0.00 | 49 | 997.5 |
| 20260830210620 | 76 | 180 | 3.0 | 7.0 | 0.00 | 0.00 | 0.00 | 48 | 997.4 |
| 20260830210118 | 76 | 180 | 3.0 | 5.0 | 0.00 | 0.00 | 0.00 | 48 | 997.5 |
| 20260830205641 | 76 | 180 | 4.0 | 9.0 | 0.00 | 0.00 | 0.00 | 48 | 997.4 |
| 20260830205120 | 76 | 180 | 5.0 | 11.0 | 0.00 | 0.00 | 0.00 | 48 | 997.4 |
| 20260830204618 | 76 | 0 | 6.0 | 10.0 | 0.00 | 0.00 | 0.00 | 46 | 997.4 |
| 20260830204120 | 76 | 180 | 2.0 | 5.0 | 0.00 | 0.00 | 0.00 | 46 | 997.5 |
| 20260830203621 | 75 | 180 | 3.0 | 8.0 | 0.00 | 0.00 | 0.00 | 46 | 997.4 |
| 20260830203139 | 75 | 0 | 3.0 | 5.0 | 0.00 | 0.00 | 0.00 | 47 | 997.4 |
| 20260830202620 | 75 | 180 | 4.0 | 9.0 | 0.00 | 0.00 | 0.00 | 48 | 997.4 |
| 20260830202118 | 75 | 180 | 5.0 | 9.0 | 0.00 | 0.00 | 0.00 | 48 | 997.4 |
| 20260830201639 | 75 | 203 | 3.0 | 7.0 | 0.00 | 0.00 | 0.00 | 48 | 997.6 |
| 20260830201120 | 75 | 0 | 7.0 | 11.0 | 0.00 | 0.00 | 0.00 | 48 | 997.6 |
| 20260830200620 | 75 | 180 | 6.0 | 10.0 | 0.00 | 0.00 | 0.00 | 48 | 998.4 |
| 20260830200120 | 74 | 203 | 3.0 | 5.0 | 0.00 | 0.00 | 0.00 | 48 | 998.6 |
| 20260830195639 | 74 | 0 | 1.0 | 2.0 | 0.00 | 0.00 | 0.00 | 49 | 998.5 |
| 20260830195121 | 74 | 0 | 3.0 | 4.0 | 0.00 | 0.00 | 0.00 | 49 | 998.6 |
| 20260830194621 | 74 | 0 | 3.0 | 6.0 | 0.00 | 0.00 | 0.00 | 49 | 998.6 |
| 20260830194118 | 74 | 180 | 1.0 | 3.0 | 0.00 | 0.00 | 0.00 | 49 | 998.5 |
| 20260830193620 | 74 | 0 | 2.0 | 4.0 | 0.00 | 0.00 | 0.00 | 49 | 998.7 |
| 20260830193119 | 74 | 0 | 2.0 | 3.0 | 0.00 | 0.00 | 0.00 | 49 | 998.7 |
| 20260830192638 | 74 | 180 | 2.0 | 4.0 | 0.00 | 0.00 | 0.00 | 48 | 998.8 |
| 20260830192118 | 74 | 180 | 1.0 | 2.0 | 0.00 | 0.00 | 0.00 | 48 | 998.9 |
| 20260830191618 | 74 | 180 | 2.0 | 4.0 | 0.00 | 0.00 | 0.00 | 48 | 999.1 |
| 20260830191120 | 74 | 180 | 2.0 | 5.0 | 0.00 | 0.00 | 0.00 | 48 | 999.2 |
| 20260830190618 | 74 | 180 | 1.0 | 4.0 | 0.00 | 0.00 | 0.00 | 49 | 999.3 |
| 20260830190118 | 73 | 0.0 | 2.0 | 0.00 | 0.00 | 0.00 | 49 | 999.3 | |
| 20260830185618 | 73 | 203 | 1.0 | 3.0 | 0.00 | 0.00 | 0.00 | 50 | 999.5 |
| 20260830185119 | 73 | 0.0 | 1.0 | 0.00 | 0.00 | 0.00 | 50 | 999.6 | |
| 20260830184618 | 73 | 0 | 1.0 | 2.0 | 0.00 | 0.00 | 0.00 | 50 | 999.6 |
| 20260830184118 | 73 | 180 | 3.0 | 4.0 | 0.00 | 0.00 | 0.00 | 50 | 999.7 |
| 20260830183619 | 73 | 158 | 3.0 | 5.0 | 0.00 | 0.00 | 0.00 | 51 | 999.7 |
| 20260830183118 | 73 | 180 | 2.0 | 6.0 | 0.00 | 0.00 | 0.00 | 51 | 999.7 |
| 20260830182619 | 73 | 0 | 4.0 | 9.0 | 0.00 | 0.00 | 0.00 | 51 | 999.8 |
| 20260830182118 | 73 | 180 | 5.0 | 10.0 | 0.00 | 0.00 | 0.00 | 53 | 1000.0 |
| 20260830181619 | 73 | 0 | 3.0 | 4.0 | 0.00 | 0.00 | 0.00 | 53 | 1000.1 |
| 20260830181138 | 73 | 0 | 2.0 | 5.0 | 0.00 | 0.00 | 0.00 | 54 | 1000.3 |
| 20260830180618 | 73 | 180 | 2.0 | 3.0 | 0.00 | 0.00 | 0.00 | 54 | 1000.4 |
| 20260830180118 | 74 | 0.0 | 0.0 | 0.00 | 0.00 | 0.00 | 53 | 1000.6 | |
| 20260830175638 | 74 | 0 | 3.0 | 8.0 | 0.00 | 0.00 | 0.00 | 53 | 1000.6 |
| 20260830175118 | 74 | 0.0 | 0.0 | 0.00 | 0.00 | 0.00 | 53 | 1000.8 | |
| 20260830174618 | 74 | 0.0 | 0.0 | 0.00 | 0.00 | 0.00 | 53 | 1000.8 | |
| 20260830174118 | 74 | 0.0 | 0.0 | 0.00 | 0.00 | 0.00 | 53 | 1000.9 | |
| 20260830173618 | 74 | 0 | 2.0 | 3.0 | 0.00 | 0.00 | 0.00 | 52 | 1000.9 |
| 20260830173121 | 74 | 0.0 | 0.0 | 0.00 | 0.00 | 0.00 | 52 | 1000.9 | |
| 20260830172618 | 74 | 180 | 2.0 | 4.0 | 0.00 | 0.00 | 0.00 | 52 | 1000.9 |
| 20260830172118 | 74 | 180 | 1.0 | 3.0 | 0.00 | 0.00 | 0.00 | 51 | 1000.8 |
| 20260830171621 | 75 | 180 | 4.0 | 5.0 | 0.00 | 0.00 | 0.00 | 51 | 1000.9 |
| 20260830171120 | 75 | 0.0 | 0.0 | 0.00 | 0.00 | 0.00 | 50 | 1001.0 | |
| 20260830170640 | 74 | 0.0 | 0.0 | 0.00 | 0.00 | 0.00 | 50 | 1001.1 | |
| 20260830170200 | 74 | 0.0 | 0.0 | 0.00 | 0.00 | 0.00 | 50 | 1001.2 | |
| 20260830165618 | 74 | 0.0 | 0.0 | 0.00 | 0.00 | 0.00 | 50 | 1001.1 | |
| 20260830165119 | 74 | 0.0 | 0.0 | 0.00 | 0.00 | 0.00 | 50 | 1001.3 | |
| 20260830164618 | 74 | 0.0 | 0.0 | 0.00 | 0.00 | 0.00 | 51 | 1001.3 | |
| 20260830164139 | 74 | 0.0 | 0.0 | 0.00 | 0.00 | 0.00 | 51 | 1001.3 | |
| 20260830163618 | 74 | 0.0 | 0.0 | 0.00 | 0.00 | 0.00 | 51 | 1001.4 | |
| 20260830163118 | 74 | 0.0 | 0.0 | 0.00 | 0.00 | 0.00 | 51 | 1001.6 | |
| 20260830162619 | 74 | 0.0 | 0.0 | 0.00 | 0.00 | 0.00 | 51 | 1001.6 | |
| 20260830162118 | 74 | 0.0 | 0.0 | 0.00 | 0.00 | 0.00 | 51 | 1001.7 | |
| 20260830161638 | 74 | 0.0 | 0.0 | 0.00 | 0.00 | 0.00 | 51 | 1001.7 | |
| 20260830161120 | 74 | 0.0 | 0.0 | 0.00 | 0.00 | 0.00 | 51 | 1001.7 | |
| 20260830160618 | 74 | 0.0 | 0.0 | 0.00 | 0.00 | 0.00 | 51 | 1001.8 | |
| 20260830160118 | 74 | 0.0 | 0.0 | 0.00 | 0.00 | 0.00 | 51 | 1001.8 | |
| 20260830155618 | 74 | 0.0 | 0.0 | 0.00 | 0.00 | 0.00 | 51 | 1001.8 | |
| 20260830155117 | 74 | 0.0 | 0.0 | 0.00 | 0.00 | 0.00 | 51 | 1001.9 | |
| 20260830154618 | 74 | 0.0 | 0.0 | 0.00 | 0.00 | 0.00 | 52 | 1001.8 | |
| 20260830154118 | 74 | 0.0 | 0.0 | 0.00 | 0.00 | 0.00 | 52 | 1001.8 | |
| 20260830153618 | 74 | 0.0 | 0.0 | 0.00 | 0.00 | 0.00 | 52 | 1001.7 | |
| 20260830153118 | 73 | 0.0 | 0.0 | 0.00 | 0.00 | 0.00 | 52 | 1001.7 | |
| 20260830152617 | 73 | 0.0 | 0.0 | 0.00 | 0.00 | 0.00 | 53 | 1001.6 | |
| 20260830152138 | 73 | 0.0 | 0.0 | 0.00 | 0.00 | 0.00 | 53 | 1001.5 | |
| 20260830151618 | 73 | 0.0 | 0.0 | 0.00 | 0.00 | 0.00 | 53 | 1001.5 | |
| 20260830151118 | 73 | 0.0 | 0.0 | 0.00 | 0.00 | 0.00 | 53 | 1001.5 | |
| 20260830150617 | 73 | 0.0 | 0.0 | 0.00 | 0.00 | 0.00 | 53 | 1001.5 | |
| 20260830150138 | 73 | 0.0 | 0.0 | 0.00 | 0.00 | 0.00 | 53 | 1001.4 | |
| 20260830145617 | 73 | 0.0 | 0.0 | 0.00 | 0.00 | 0.00 | 54 | 1001.3 | |
| 20260830145118 | 72 | 0.0 | 0.0 | 0.00 | 0.00 | 0.00 | 55 | 1001.3 | |
| 20260830144620 | 72 | 0.0 | 0.0 | 0.00 | 0.00 | 0.00 | 55 | 1001.1 | |
| 20260830144120 | 72 | 0.0 | 0.0 | 0.00 | 0.00 | 0.00 | 55 | 1001.0 | |
| 20260830143637 | 72 | 0.0 | 0.0 | 0.00 | 0.00 | 0.00 | 55 | 1001.0 | |
| 20260830143138 | 72 | 0.0 | 0.0 | 0.00 | 0.00 | 0.00 | 56 | 1001.0 | |
| 20260830142621 | 72 | 0.0 | 0.0 | 0.00 | 0.00 | 0.00 | 56 | 1001.0 | |
| 20260830142117 | 72 | 0.0 | 0.0 | 0.00 | 0.00 | 0.00 | 56 | 1001.0 | |
| 20260830141620 | 72 | 0.0 | 0.0 | 0.00 | 0.00 | 0.00 | 56 | 1000.8 | |
| 20260830141120 | 72 | 0.0 | 0.0 | 0.00 | 0.00 | 0.00 | 56 | 1000.9 | |
| 20260830140640 | 72 | 0.0 | 0.0 | 0.00 | 0.00 | 0.00 | 56 | 1000.8 | |
| 20260830140120 | 72 | 0.0 | 0.0 | 0.00 | 0.00 | 0.00 | 56 | 1000.7 | |
| 20260830135617 | 72 | 0.0 | 0.0 | 0.00 | 0.00 | 0.00 | 56 | 1000.7 | |
| 20260830135120 | 72 | 0.0 | 1.0 | 0.00 | 0.00 | 0.00 | 56 | 1000.6 | |
| 20260830134620 | 72 | 225 | 1.0 | 1.0 | 0.00 | 0.00 | 0.00 | 56 | 1000.6 |
| 20260830134122 | 72 | 225 | 1.0 | 2.0 | 0.00 | 0.00 | 0.00 | 56 | 1000.5 |
| 20260830133620 | 72 | 0.0 | 0.0 | 0.00 | 0.00 | 0.00 | 56 | 1000.4 | |
| 20260830133120 | 72 | 225 | 2.0 | 3.0 | 0.00 | 0.00 | 0.00 | 56 | 1000.2 |
| 20260830132620 | 72 | 0 | 4.0 | 5.0 | 0.00 | 0.00 | 0.00 | 56 | 1000.1 |
| 20260830132117 | 71 | 0 | 6.0 | 8.0 | 0.00 | 0.00 | 0.00 | 57 | 1000.0 |
| 20260830131619 | 71 | 225 | 5.0 | 6.0 | 0.00 | 0.00 | 0.00 | 57 | 999.9 |
| 20260830131117 | 71 | 0 | 6.0 | 6.0 | 0.00 | 0.00 | 0.00 | 57 | 999.8 |
| 20260830130618 | 71 | 0 | 6.0 | 8.0 | 0.00 | 0.00 | 0.00 | 56 | 999.6 |
| 20260830130119 | 71 | 203 | 4.0 | 6.0 | 0.00 | 0.00 | 0.00 | 56 | 999.6 |
| 20260830125620 | 71 | 0 | 5.0 | 8.0 | 0.00 | 0.00 | 0.00 | 56 | 999.5 |
| 20260830125120 | 71 | 0 | 3.0 | 5.0 | 0.00 | 0.00 | 0.00 | 56 | 999.5 |
| 20260830124617 | 71 | 0 | 4.0 | 6.0 | 0.00 | 0.00 | 0.00 | 56 | 999.5 |
| 20260830124122 | 71 | 0 | 4.0 | 6.0 | 0.00 | 0.00 | 0.00 | 56 | 999.6 |
| 20260830123620 | 71 | 0 | 4.0 | 8.0 | 0.00 | 0.00 | 0.00 | 56 | 999.6 |
| 20260830123117 | 71 | 0 | 3.0 | 5.0 | 0.00 | 0.00 | 0.00 | 56 | 999.5 |
| 20260830122618 | 71 | 0 | 5.0 | 9.0 | 0.00 | 0.00 | 0.00 | 56 | 999.6 |
| 20260830122117 | 71 | 0 | 5.0 | 10.0 | 0.00 | 0.00 | 0.00 | 55 | 999.6 |
| 20260830121620 | 71 | 0 | 4.0 | 6.0 | 0.00 | 0.00 | 0.00 | 55 | 999.5 |
| 20260830121117 | 71 | 0 | 6.0 | 9.0 | 0.00 | 0.00 | 0.00 | 55 | 999.5 |
| 20260830120618 | 71 | 0 | 8.0 | 11.0 | 0.00 | 0.00 | 0.00 | 55 | 999.5 |
| 20260830120137 | 71 | 0 | 8.0 | 11.0 | 0.00 | 0.00 | 0.00 | 55 | 999.4 |
| 20260830115619 | 71 | 0 | 7.0 | 13.0 | 0.00 | 0.00 | 0.00 | 55 | 999.3 |
| 20260830115141 | 71 | 0 | 7.0 | 10.0 | 0.00 | 0.00 | 0.00 | 56 | 999.4 |
| 20260830114639 | 71 | 0 | 5.0 | 9.0 | 0.00 | 0.00 | 0.00 | 55 | 999.4 |
| 20260830114139 | 71 | 0 | 5.0 | 8.0 | 0.00 | 0.00 | 0.00 | 55 | 999.4 |
| 20260830113617 | 71 | 0 | 6.0 | 9.0 | 0.00 | 0.00 | 0.00 | 55 | 999.3 |
| 20260830113121 | 71 | 0 | 5.0 | 9.0 | 0.00 | 0.00 | 0.00 | 55 | 999.5 |
| 20260830112620 | 71 | 0 | 7.0 | 10.0 | 0.00 | 0.00 | 0.00 | 55 | 999.6 |
| 20260830112118 | 71 | 0 | 8.0 | 10.0 | 0.00 | 0.00 | 0.00 | 55 | 999.6 |
| 20260830111617 | 71 | 0 | 8.0 | 11.0 | 0.00 | 0.00 | 0.00 | 55 | 999.6 |
| 20260830111119 | 71 | 0 | 5.0 | 9.0 | 0.00 | 0.00 | 0.00 | 55 | 999.6 |
| 20260830110619 | 71 | 0 | 6.0 | 8.0 | 0.00 | 0.00 | 0.00 | 55 | 999.6 |
| 20260830110117 | 71 | 0 | 5.0 | 8.0 | 0.00 | 0.00 | 0.00 | 55 | 999.6 |
| 20260830105619 | 71 | 0 | 5.0 | 8.0 | 0.00 | 0.00 | 0.00 | 55 | 999.6 |
| 20260830105119 | 71 | 0 | 4.0 | 5.0 | 0.00 | 0.00 | 0.00 | 55 | 999.6 |
| 20260830104619 | 71 | 0 | 5.0 | 9.0 | 0.00 | 0.00 | 0.00 | 55 | 999.6 |
| 20260830104119 | 71 | 0 | 4.0 | 6.0 | 0.00 | 0.00 | 0.00 | 55 | 999.6 |
| 20260830103618 | 71 | 0 | 5.0 | 10.0 | 0.00 | 0.00 | 0.00 | 54 | 999.6 |
| 20260830103120 | 71 | 0 | 4.0 | 9.0 | 0.00 | 0.00 | 0.00 | 55 | 999.5 |
| 20260830102619 | 71 | 203 | 4.0 | 6.0 | 0.00 | 0.00 | 0.00 | 54 | 999.6 |
| 20260830102120 | 71 | 158 | 3.0 | 7.0 | 0.00 | 0.00 | 0.00 | 54 | 999.4 |
| 20260830101620 | 71 | 203 | 3.0 | 4.0 | 0.00 | 0.00 | 0.00 | 55 | 999.5 |
| 20260830101117 | 71 | 203 | 3.0 | 5.0 | 0.00 | 0.00 | 0.00 | 54 | 999.5 |
| 20260830100619 | 71 | 203 | 3.0 | 5.0 | 0.00 | 0.00 | 0.00 | 54 | 999.6 |
| 20260830100120 | 71 | 0 | 3.0 | 6.0 | 0.00 | 0.00 | 0.00 | 54 | 999.6 |
| 20260830095620 | 71 | 0 | 3.0 | 5.0 | 0.00 | 0.00 | 0.00 | 54 | 999.7 |
| 20260830095120 | 71 | 0 | 4.0 | 8.0 | 0.00 | 0.00 | 0.00 | 54 | 999.7 |
| 20260830094619 | 71 | 203 | 3.0 | 5.0 | 0.00 | 0.00 | 0.00 | 54 | 999.7 |
| 20260830094140 | 71 | 0 | 5.0 | 9.0 | 0.00 | 0.00 | 0.00 | 54 | 999.6 |
| 20260830093619 | 71 | 0 | 5.0 | 8.0 | 0.00 | 0.00 | 0.00 | 54 | 999.8 |
| 20260830093120 | 71 | 0 | 3.0 | 5.0 | 0.00 | 0.00 | 0.00 | 54 | 999.7 |
| 20260830092617 | 71 | 180 | 3.0 | 7.0 | 0.00 | 0.00 | 0.00 | 54 | 999.6 |
| 20260830092119 | 71 | 180 | 2.0 | 4.0 | 0.00 | 0.00 | 0.00 | 54 | 999.6 |
| 20260830091619 | 71 | 0 | 3.0 | 5.0 | 0.00 | 0.00 | 0.00 | 54 | 999.7 |
| 20260830091120 | 71 | 0 | 4.0 | 6.0 | 0.00 | 0.00 | 0.00 | 54 | 999.7 |
| 20260830090617 | 71 | 248 | 2.0 | 4.0 | 0.00 | 0.00 | 0.00 | 54 | 999.6 |
| 20260830090117 | 71 | 0 | 2.0 | 5.0 | 0.00 | 0.00 | 0.00 | 54 | 999.6 |
| 20260830085620 | 71 | 0 | 3.0 | 6.0 | 0.00 | 0.00 | 0.00 | 54 | 999.6 |
| 20260830085120 | 71 | 0 | 3.0 | 6.0 | 0.00 | 0.00 | 0.00 | 54 | 999.6 |
| 20260830084640 | 71 | 180 | 3.0 | 5.0 | 0.00 | 0.00 | 0.00 | 54 | 999.7 |
| 20260830084119 | 71 | 158 | 2.0 | 4.0 | 0.00 | 0.00 | 0.00 | 54 | 999.7 |
| 20260830083619 | 71 | 203 | 4.0 | 5.0 | 0.00 | 0.00 | 0.00 | 54 | 999.8 |
| 20260830083119 | 71 | 0 | 4.0 | 7.0 | 0.00 | 0.00 | 0.00 | 54 | 999.8 |
| 20260830082619 | 71 | 0 | 6.0 | 8.0 | 0.00 | 0.00 | 0.00 | 54 | 999.9 |
| 20260830082119 | 71 | 0 | 4.0 | 5.0 | 0.00 | 0.00 | 0.00 | 53 | 999.8 |
| 20260830081624 | 71 | 0 | 3.0 | 5.0 | 0.00 | 0.00 | 0.00 | 53 | 999.7 |
| 20260830081159 | 71 | 0 | 2.0 | 3.0 | 0.00 | 0.00 | 0.00 | 53 | 999.7 |
| 20260830080618 | 71 | 158 | 2.0 | 4.0 | 0.00 | 0.00 | 0.00 | 53 | 999.7 |
| 20260830080137 | 71 | 180 | 4.0 | 6.0 | 0.00 | 0.00 | 0.00 | 53 | 999.7 |
| 20260830075617 | 71 | 0 | 3.0 | 4.0 | 0.00 | 0.00 | 0.00 | 53 | 999.8 |
| 20260830075119 | 71 | 203 | 3.0 | 5.0 | 0.00 | 0.00 | 0.00 | 53 | 999.8 |
| 20260830074617 | 71 | 180 | 2.0 | 6.0 | 0.00 | 0.00 | 0.00 | 53 | 999.7 |
| 20260830074119 | 71 | 248 | 2.0 | 3.0 | 0.00 | 0.00 | 0.00 | 53 | 999.8 |
| 20260830073637 | 71 | 180 | 2.0 | 4.0 | 0.00 | 0.00 | 0.00 | 53 | 999.7 |
| 20260830073117 | 71 | 248 | 2.0 | 5.0 | 0.00 | 0.00 | 0.00 | 53 | 999.7 |
| 20260830072618 | 71 | 203 | 3.0 | 5.0 | 0.00 | 0.00 | 0.00 | 53 | 999.6 |
| 20260830072116 | 71 | 203 | 2.0 | 4.0 | 0.00 | 0.00 | 0.00 | 53 | 999.7 |
| 20260830071617 | 71 | 180 | 2.0 | 4.0 | 0.00 | 0.00 | 0.00 | 53 | 999.8 |
| 20260830071116 | 71 | 203 | 2.0 | 3.0 | 0.00 | 0.00 | 0.00 | 53 | 999.8 |
| 20260830070617 | 71 | 0 | 3.0 | 6.0 | 0.00 | 0.00 | 0.00 | 53 | 999.8 |
| 20260830070117 | 71 | 203 | 1.0 | 2.0 | 0.00 | 0.00 | 0.00 | 53 | 999.8 |
| 20260830065637 | 71 | 203 | 1.0 | 3.0 | 0.00 | 0.00 | 0.00 | 53 | 999.9 |
| 20260830065117 | 71 | 180 | 1.0 | 3.0 | 0.00 | 0.00 | 0.00 | 53 | 999.9 |
| 20260830064616 | 71 | 0 | 1.0 | 4.0 | 0.00 | 0.00 | 0.00 | 53 | 1000.0 |
| 20260830064117 | 71 | 158 | 2.0 | 3.0 | 0.00 | 0.00 | 0.00 | 53 | 1000.0 |
| 20260830063617 | 71 | 203 | 2.0 | 5.0 | 0.00 | 0.00 | 0.00 | 53 | 1000.0 |
| 20260830063117 | 71 | 180 | 2.0 | 4.0 | 0.00 | 0.00 | 0.00 | 53 | 1000.0 |
| 20260830062616 | 71 | 0 | 2.0 | 3.0 | 0.00 | 0.00 | 0.00 | 53 | 1000.1 |
| 20260830062137 | 71 | 203 | 3.0 | 6.0 | 0.00 | 0.00 | 0.00 | 53 | 1000.1 |
| 20260830061617 | 71 | 0 | 1.0 | 3.0 | 0.00 | 0.00 | 0.00 | 53 | 1000.1 |
| 20260830061117 | 71 | 203 | 2.0 | 4.0 | 0.00 | 0.00 | 0.00 | 52 | 1000.1 |
| 20260830060617 | 71 | 0 | 3.0 | 4.0 | 0.00 | 0.00 | 0.00 | 53 | 1000.2 |
| 20260830060137 | 71 | 203 | 2.0 | 3.0 | 0.00 | 0.00 | 0.00 | 53 | 1000.4 |
| 20260830055617 | 71 | 158 | 3.0 | 6.0 | 0.00 | 0.00 | 0.00 | 53 | 1000.3 |
| 20260830055117 | 71 | 0 | 3.0 | 4.0 | 0.00 | 0.00 | 0.00 | 53 | 1000.3 |
| 20260830054617 | 71 | 180 | 2.0 | 3.0 | 0.00 | 0.00 | 0.00 | 53 | 1000.4 |
| 20260830054329 | 71 | 180 | 3.0 | 4.0 | 0.00 | 0.00 | 0.00 | 54 | 1000.4 |
| 20260830054321 | 71 | 0 | 4.0 | 7.0 | 0.00 | 0.00 | 0.00 | 54 | 1000.4 |
| 20260830053117 | 71 | 0 | 3.0 | 6.0 | 0.00 | 0.00 | 0.00 | 54 | 1000.4 |
| 20260830052617 | 71 | 0.0 | 1.0 | 0.00 | 0.00 | 0.00 | 54 | 1000.4 | |
| 20260830052116 | 71 | 203 | 2.0 | 4.0 | 0.00 | 0.00 | 0.00 | 54 | 1000.4 |
| 20260830051636 | 71 | 180 | 2.0 | 5.0 | 0.00 | 0.00 | 0.00 | 54 | 1000.4 |
| 20260830051137 | 71 | 158 | 2.0 | 4.0 | 0.00 | 0.00 | 0.00 | 54 | 1000.5 |
| 20260830050616 | 71 | 203 | 1.0 | 3.0 | 0.00 | 0.00 | 0.00 | 54 | 1000.5 |
| 20260830050117 | 71 | 0 | 2.0 | 4.0 | 0.00 | 0.00 | 0.00 | 55 | 1000.5 |
| 20260830045617 | 71 | 0 | 3.0 | 4.0 | 0.00 | 0.00 | 0.00 | 54 | 1000.5 |
| 20260830045119 | 71 | 0 | 3.0 | 6.0 | 0.00 | 0.00 | 0.00 | 54 | 1000.5 |
| 20260830044720 | 71 | 0 | 3.0 | 5.0 | 0.00 | 0.00 | 0.00 | 55 | 1000.4 |
| 20260830044118 | 71 | 203 | 2.0 | 4.0 | 0.00 | 0.00 | 0.00 | 55 | 1000.4 |
| 20260830043619 | 71 | 0 | 3.0 | 4.0 | 0.00 | 0.00 | 0.00 | 55 | 1000.4 |
| 20260830043118 | 71 | 180 | 2.0 | 3.0 | 0.00 | 0.00 | 0.00 | 55 | 1000.2 |
| 20260830042618 | 71 | 203 | 2.0 | 4.0 | 0.00 | 0.00 | 0.00 | 55 | 1000.3 |
| 20260830042118 | 71 | 203 | 2.0 | 3.0 | 0.00 | 0.00 | 0.00 | 55 | 1000.3 |
| 20260830041700 | 71 | 203 | 2.0 | 3.0 | 0.00 | 0.00 | 0.00 | 55 | 1000.2 |
| 20260830041118 | 71 | 0 | 3.0 | 4.0 | 0.00 | 0.00 | 0.00 | 55 | 1000.3 |
| 20260830040619 | 71 | 203 | 1.0 | 2.0 | 0.00 | 0.00 | 0.00 | 55 | 1000.2 |
| 20260830040119 | 71 | 203 | 2.0 | 2.0 | 0.00 | 0.00 | 0.00 | 55 | 1000.2 |
| 20260830035617 | 71 | 0 | 3.0 | 5.0 | 0.00 | 0.00 | 0.00 | 56 | 1000.1 |
| 20260830035117 | 71 | 0 | 1.0 | 3.0 | 0.00 | 0.00 | 0.00 | 56 | 1000.0 |
| 20260830034637 | 72 | 0 | 2.0 | 3.0 | 0.00 | 0.00 | 0.00 | 56 | 1000.0 |
| 20260830034258 | 72 | 0 | 3.0 | 5.0 | 0.00 | 0.00 | 0.00 | 56 | 1000.0 |
| 20260830033616 | 72 | 0 | 2.0 | 4.0 | 0.00 | 0.00 | 0.00 | 56 | 1000.0 |
| 20260830033116 | 72 | 0.0 | 1.0 | 0.00 | 0.00 | 0.00 | 56 | 1000.0 | |
| 20260830032637 | 72 | 0.0 | 0.0 | 0.00 | 0.00 | 0.00 | 56 | 1000.1 | |
| 20260830032116 | 72 | 0.0 | 2.0 | 0.00 | 0.00 | 0.00 | 56 | 1000.3 | |
| 20260830031637 | 72 | 0 | 2.0 | 3.0 | 0.00 | 0.00 | 0.00 | 56 | 1000.2 |
| 20260830031118 | 72 | 0 | 2.0 | 3.0 | 0.00 | 0.00 | 0.00 | 56 | 1000.1 |
| 20260830030619 | 72 | 180 | 4.0 | 5.0 | 0.00 | 0.00 | 0.00 | 57 | 1000.1 |
| 20260830030118 | 72 | 0 | 1.0 | 2.0 | 0.00 | 0.00 | 0.00 | 56 | 1000.1 |
| 20260830025616 | 72 | 0 | 1.0 | 3.0 | 0.00 | 0.00 | 0.00 | 57 | 1000.1 |
| 20260830025139 | 72 | 0.0 | 1.0 | 0.00 | 0.00 | 0.00 | 57 | 1000.1 | |
| 20260830024637 | 72 | 158 | 1.0 | 5.0 | 0.00 | 0.00 | 0.00 | 57 | 1000.2 |
| 20260830024120 | 72 | 0.0 | 0.0 | 0.00 | 0.00 | 0.00 | 57 | 1000.3 | |
| 20260830023617 | 73 | 0.0 | 0.0 | 0.00 | 0.00 | 0.00 | 57 | 1000.3 | |
| 20260830023117 | 73 | 0.0 | 0.0 | 0.00 | 0.00 | 0.00 | 57 | 1000.4 | |
| 20260830022618 | 73 | 0.0 | 0.0 | 0.00 | 0.00 | 0.00 | 56 | 1000.2 |